• In Kazakhstan
  • List of Countries
  • For 7 days
  • Water Temperature
  • Satellite Maps
  • Weather Map
  • News
  • Weather Widgets
  • user-avatar
    Login

    Hourly Weather New Orleans

    Today, 20 November, Monday

    Time Temperature Precipitation Wind Pressure Humidity
    00:00 +8°C° 0 mm 5 mps 767 mmHg 49%
    01:00 +8°C° 0 mm 5 mps 767 mmHg 51%
    02:00 +7°C° 0 mm 4 mps 767 mmHg 52%
    03:00 +7°C° 0 mm 4 mps 767 mmHg 53%
    04:00 +7°C° 0 mm 4 mps 767 mmHg 55%
    05:00 +7°C° 0 mm 4 mps 767 mmHg 56%
    06:00 +6°C° 0 mm 4 mps 767 mmHg 56%
    07:00 +8°C° 0 mm 4 mps 767 mmHg 54%
    08:00 +10°C° 0 mm 4 mps 767 mmHg 52%
    09:00 +11°C° 0 mm 3 mps 767 mmHg 50%
    10:00 +13°C° 0 mm 3 mps 767 mmHg 46%
    11:00 +16°C° 0 mm 2 mps 766 mmHg 42%
    12:00 +18°C° 0 mm 2 mps 766 mmHg 37%
    13:00 +18°C° 0 mm 2 mps 765 mmHg 37%
    14:00 +19°C° 0 mm 1 mps 765 mmHg 36%
    15:00 +20°C° 0 mm 1 mps 764 mmHg 36%
    16:00 +18°C° 0 mm 1 mps 764 mmHg 42%
    17:00 +15°C° 0 mm 2 mps 764 mmHg 48%
    18:00 +14°C° 0 mm 2 mps 764 mmHg 54%
    19:00 +14°C° 0 mm 2 mps 764 mmHg 58%
    20:00 +13°C° 0 mm 2 mps 764 mmHg 63%
    21:00 +13°C° 0 mm 2 mps 764 mmHg 67%
    22:00 +13°C° 0 mm 2 mps 764 mmHg 71%
    23:00 +13°C° 0 mm 2 mps 764 mmHg 75%

    Tomorrow, 21 November, Tuesday

    Time Temperature Precipitation Wind Pressure Humidity
    00:00 +13°C° 0 mm 2 mps 764 mmHg 79%
    01:00 +13°C° 0 mm 1 mps 764 mmHg 81%
    02:00 +13°C° 0 mm 1 mps 763 mmHg 83%
    03:00 +13°C° 0 mm 1 mps 763 mmHg 85%
    04:00 +13°C° 0 mm 2 mps 763 mmHg 87%
    05:00 +12°C° 0 mm 2 mps 763 mmHg 89%
    06:00 +12°C° 0 mm 2 mps 763 mmHg 90%
    07:00 +14°C° 0 mm 2 mps 763 mmHg 83%
    08:00 +16°C° 0 mm 2 mps 763 mmHg 76%
    09:00 +18°C° 0 mm 2 mps 763 mmHg 69%
    10:00 +21°C° 0 mm 1 mps 763 mmHg 64%
    11:00 +22°C° 0 mm 1 mps 762 mmHg 59%
    12:00 +24°C° 0 mm 1 mps 762 mmHg 55%
    13:00 +23°C° 0 mm 1 mps 762 mmHg 56%
    14:00 +23°C° 0 mm 1 mps 762 mmHg 58%
    15:00 +22°C° 0 mm 1 mps 761 mmHg 60%
    16:00 +21°C° 0 mm 1 mps 761 mmHg 65%
    17:00 +20°C° 0 mm 1 mps 761 mmHg 69%
    18:00 +19°C° 0 mm 1 mps 762 mmHg 74%
    19:00 +17°C° 0 mm 2 mps 762 mmHg 75%
    20:00 +17°C° 0 mm 2 mps 762 mmHg 76%
    21:00 +17°C° 0 mm 2 mps 762 mmHg 77%
    22:00 +16°C° 0 mm 2 mps 762 mmHg 79%
    23:00 +16°C° 0 mm 3 mps 763 mmHg 80%

    Day after tomorrow, 22 November, Wednesday

    Time Temperature Precipitation Wind Pressure Humidity
    00:00 +14°C° 0 mm 4 mps 763 mmHg 82%
    01:00 +14°C° 0 mm 4 mps 763 mmHg 81%
    02:00 +14°C° 0 mm 4 mps 763 mmHg 79%
    03:00 +14°C° 0 mm 4 mps 763 mmHg 77%
    04:00 +13°C° 0 mm 4 mps 763 mmHg 75%
    05:00 +13°C° 0 mm 4 mps 764 mmHg 73%
    06:00 +13°C° 0 mm 4 mps 764 mmHg 71%
    07:00 +14°C° 0 mm 5 mps 764 mmHg 65%
    08:00 +14°C° 0 mm 5 mps 765 mmHg 59%
    09:00 +15°C° 0 mm 5 mps 765 mmHg 52%
    10:00 +16°C° 0 mm 5 mps 765 mmHg 48%
    11:00 +19°C° 0 mm 5 mps 764 mmHg 43%
    12:00 +20°C° 0 mm 5 mps 764 mmHg 39%
    13:00 +20°C° 0 mm 5 mps 764 mmHg 40%
    14:00 +20°C° 0 mm 5 mps 763 mmHg 41%
    15:00 +21°C° 0 mm 5 mps 763 mmHg 43%
    16:00 +19°C° 0 mm 5 mps 763 mmHg 49%
    17:00 +17°C° 0 mm 5 mps 763 mmHg 55%
    18:00 +15°C° 0 mm 5 mps 764 mmHg 61%
    19:00 +14°C° 0 mm 5 mps 764 mmHg 63%
    20:00 +13°C° 0 mm 6 mps 765 mmHg 64%
    21:00 +13°C° 0 mm 6 mps 765 mmHg 66%
    22:00 +11°C° 0 mm 6 mps 765 mmHg 66%
    23:00 +10°C° 0 mm 6 mps 765 mmHg 67%

    23 November, Thursday

    Time Temperature Precipitation Wind Pressure Humidity
    00:00 +9°C° 0 mm 5 mps 765 mmHg 67%
    01:00 +9°C° 0 mm 5 mps 765 mmHg 68%
    02:00 +8°C° 0 mm 5 mps 764 mmHg 69%
    03:00 +7°C° 0 mm 5 mps 764 mmHg 70%
    04:00 +7°C° 0 mm 5 mps 764 mmHg 70%
    05:00 +6°C° 0 mm 5 mps 764 mmHg 71%
    06:00 +6°C° 0 mm 5 mps 764 mmHg 71%
    07:00 +7°C° 0 mm 5 mps 765 mmHg 66%
    08:00 +8°C° 0 mm 5 mps 765 mmHg 61%
    09:00 +9°C° 0 mm 5 mps 765 mmHg 56%
    10:00 +12°C° 0 mm 5 mps 764 mmHg 49%
    11:00 +13°C° 0 mm 4 mps 764 mmHg 42%
    12:00 +15°C° 0 mm 4 mps 763 mmHg 36%
    13:00 +15°C° 0 mm 4 mps 763 mmHg 34%
    14:00 +17°C° 0 mm 4 mps 762 mmHg 33%
    15:00 +17°C° 0 mm 4 mps 762 mmHg 31%
    16:00 +15°C° 0 mm 4 mps 762 mmHg 36%
    17:00 +13°C° 0 mm 4 mps 762 mmHg 41%
    18:00 +11°C° 0 mm 4 mps 763 mmHg 46%
    19:00 +11°C° 0 mm 4 mps 763 mmHg 48%
    20:00 +10°C° 0 mm 4 mps 763 mmHg 51%
    21:00 +10°C° 0 mm 4 mps 764 mmHg 53%
    22:00 +8°C° 0 mm 4 mps 764 mmHg 54%
    23:00 +8°C° 0 mm 4 mps 763 mmHg 55%

    24 November, Friday

    Time Temperature Precipitation Wind Pressure Humidity
    00:00 +7°C° 0 mm 4 mps 763 mmHg 57%
    01:00 +8°C° 0 mm 3 mps 763 mmHg 57%
    02:00 +8°C° 0 mm 3 mps 763 mmHg 58%
    03:00 +8°C° 0 mm 3 mps 763 mmHg 59%
    04:00 +7°C° 0 mm 3 mps 763 mmHg 59%
    05:00 +7°C° 0 mm 3 mps 763 mmHg 60%
    06:00 +7°C° 0 mm 3 mps 764 mmHg 60%
    07:00 +9°C° 0 mm 3 mps 764 mmHg 54%
    08:00 +11°C° 0 mm 3 mps 764 mmHg 49%
    09:00 +12°C° 0 mm 3 mps 764 mmHg 43%
    10:00 +14°C° 0 mm 3 mps 764 mmHg 38%
    11:00 +17°C° 0 mm 2 mps 763 mmHg 33%
    12:00 +19°C° 0 mm 2 mps 762 mmHg 28%
    13:00 +20°C° 0 mm 2 mps 762 mmHg 28%
    14:00 +20°C° 0 mm 2 mps 762 mmHg 29%
    15:00 +22°C° 0 mm 1 mps 761 mmHg 29%
    16:00 +20°C° 0 mm 1 mps 761 mmHg 35%
    17:00 +18°C° 0 mm 1 mps 762 mmHg 41%
    18:00 +15°C° 0 mm 1 mps 762 mmHg 46%
    19:00 +14°C° 0 mm 1 mps 762 mmHg 49%
    20:00 +14°C° 0 mm 1 mps 762 mmHg 51%
    21:00 +13°C° 0 mm 1 mps 762 mmHg 54%
    22:00 +13°C° 0 mm 1 mps 762 mmHg 55%
    23:00 +12°C° 0 mm 1 mps 762 mmHg 56%

    25 November, Saturday

    Time Temperature Precipitation Wind Pressure Humidity
    00:00 +12°C° 0 mm 1 mps 762 mmHg 57%
    01:00 +12°C° 0 mm 1 mps 762 mmHg 58%
    02:00 +12°C° 0 mm 2 mps 762 mmHg 58%
    03:00 +10°C° 0 mm 2 mps 762 mmHg 59%
    04:00 +10°C° 0 mm 2 mps 762 mmHg 60%
    05:00 +10°C° 0 mm 2 mps 762 mmHg 62%
    06:00 +10°C° 0 mm 2 mps 762 mmHg 63%
    07:00 +13°C° 0 mm 2 mps 762 mmHg 57%
    08:00 +15°C° 0 mm 2 mps 763 mmHg 52%
    09:00 +17°C° 0 mm 2 mps 763 mmHg 47%
    10:00 +19°C° 0 mm 2 mps 763 mmHg 43%
    11:00 +21°C° 0 mm 3 mps 762 mmHg 39%
    12:00 +23°C° 0 mm 4 mps 762 mmHg 35%
    13:00 +25°C° 0 mm 4 mps 762 mmHg 36%
    14:00 +25°C° 0 mm 4 mps 761 mmHg 37%
    15:00 +25°C° 0 mm 4 mps 761 mmHg 37%
    16:00 +22°C° 0 mm 4 mps 761 mmHg 45%
    17:00 +21°C° 0 mm 3 mps 762 mmHg 53%
    18:00 +19°C° 0 mm 3 mps 762 mmHg 60%
    19:00 +18°C° 0 mm 3 mps 762 mmHg 63%
    20:00 +17°C° 0 mm 3 mps 763 mmHg 66%
    21:00 +17°C° 0 mm 3 mps 763 mmHg 70%
    22:00 +16°C° 0 mm 3 mps 763 mmHg 72%
    23:00 +16°C° 0 mm 3 mps 763 mmHg 74%
    Show more